Temp
11 11 10 10 10 10 9 9 9 8 8 8 8 8 8 8 7 7 7 7 7 7 7 7 7 7 6 6 6 6 6 6 5 5 4 4 4 4 4 4 3 3 3 2 3 4 5 5 5 5 5 5
11 10 10 10 9 9 9 8 8 8 8 7 7 7 7 7 7 7 7 7 6 6 6 6 6 6 6 6 6 6 6 5 5 4 4 3 3 3 3 3 3 2 2 2 3 4 4 5 5 5 5 5
10 10 10 9 9 8 8 8 8 7 7 6 6 6 6 6 6 6 6 6 6 6 6 6 5 6 6 6 6 5 5 5 4 4 3 3 3 3 3 2 2 1 1 2 3 4 4 4 5 5 5 5
10 10 10 9 8 8 7 7 7 7 6 6 6 6 6 6 6 5 5 6 5 5 5 5 5 5 5 5 5 5 5 4 4 3 3 3 2 2 2 2 1 1 1 2 3 4 4 4 5 4 4 4
9 9 9 8 7 7 6 6 6 5 5 6 6 6 6 6 5 5 5 5 5 5 4 4 4 4 4 4 4 4 4 4 4 3 2 2 1 1 0 0 0 -0 1 2 3 4 4 4 4 4 4 4
9 9 8 7 7 6 6 5 5 5 6 6 5 6 6 6 5 5 5 4 4 4 4 4 4 4 4 4 4 4 3 3 3 2 1 0 -1 -0 -0 0 0 0 1 3 3 3 4 4 4 4 3 3
9 8 7 7 7 6 6 5 5 5 6 6 5 6 6 5 5 5 5 4 4 4 4 4 4 4 4 3 3 3 2 2 1 1 -0 -1 -1 0 1 1 2 2 2 3 3 3 3 4 3 3 3 3
8 7 7 7 6 6 6 6 5 6 6 6 5 6 6 5 5 5 4 4 4 4 4 3 3 3 3 3 2 2 2 1 0 -0 -1 -1 0 1 2 2 3 3 3 3 3 3 3 3 3 3 3 3
8 7 7 7 7 7 6 6 6 6 6 5 5 5 5 5 5 5 4 4 4 4 4 3 3 3 3 2 2 1 1 1 0 0 1 1 1 2 2 3 3 3 3 3 3 3 3 2 2 2 2 1
9 8 7 7 7 7 6 6 6 6 6 5 5 5 5 5 5 4 4 4 4 3 3 3 3 2 2 2 1 1 1 1 1 1 1 1 2 2 3 3 3 3 3 2 2 2 2 1 1 1 0 -0
10 8 8 7 7 7 7 7 6 6 6 5 5 5 5 5 5 4 4 4 3 3 3 3 2 2 2 2 1 1 1 1 1 1 1 2 2 2 3 3 3 2 2 2 2 1 1 1 0 -0 -0 -1
9 9 8 7 7 7 7 7 6 6 6 5 5 5 5 5 5 4 4 4 3 3 3 3 2 2 1 1 1 1 1 2 1 2 2 2 3 3 3 3 2 2 2 2 2 2 1 1 0 -0 -0 -1
9 9 7 7 7 7 7 7 6 6 6 5 5 5 5 5 5 4 4 4 3 3 3 2 2 2 1 1 1 1 1 2 2 2 2 3 3 3 3 2 2 2 2 1 1 1 1 0 0 -0 -0 -0
9 9 8 7 7 7 7 7 6 6 6 5 5 5 4 4 4 4 4 4 4 3 3 2 2 2 1 1 1 1 1 2 2 3 3 3 3 2 2 2 2 2 1 1 1 1 0 0 -0 -0 -0 -0
9 9 8 7 7 7 7 6 6 6 6 5 5 4 4 4 4 4 4 4 4 3 3 2 2 2 1 1 1 1 2 2 2 3 3 3 3 2 2 2 1 1 1 1 0 -0 -0 -0 -0 -0 -0 -0
8 8 8 8 7 7 7 6 6 6 6 5 5 4 4 4 4 3 3 4 4 3 3 2 2 1 1 1 1 1 1 2 2 2 2 2 2 2 2 2 1 1 1 0 -0 -1 -0 -1 -1 -1 -1 -1
8 8 8 7 7 7 6 6 6 6 6 5 5 4 4 4 3 3 3 3 4 3 2 2 1 1 1 1 1 0 1 2 2 2 2 2 2 2 2 1 0 0 0 -0 -1 -1 -1 -1 -1 -1 -1 -1
7 7 7 7 7 7 6 6 5 5 5 5 5 4 3 3 3 3 3 3 3 3 2 2 1 1 1 1 1 0 1 2 2 2 2 2 2 2 1 1 0 -0 -0 -1 -1 -1 -1 -1 -1 -1 -1 -1
7 7 7 7 7 6 6 5 5 5 5 5 5 4 3 3 3 2 2 2 3 2 2 2 1 1 1 1 0 0 1 1 2 2 2 2 2 1 1 1 0 -0 -0 -1 -1 -1 -1 -1 -1 -1 -1 -1
6 6 6 6 6 6 5 5 5 5 5 5 5 4 3 2 2 2 2 2 2 2 2 2 2 1 1 1 0 0 1 1 2 2 2 2 2 2 1 0 0 -0 -0 -1 -1 -1 -1 -1 -1 -1 -1 -1
5 5 5 5 5 5 5 4 4 4 4 4 4 4 3 2 2 2 2 1 2 2 2 1 1 1 1 1 0 0 0 1 1 2 2 1 1 2 1 0 0 -0 -1 -1 -1 -1 -1 -1 -1 -1 -1 -1
4 4 4 4 4 4 4 4 4 4 3 3 3 4 3 2 2 2 1 1 1 1 1 1 1 1 1 0 0 0 0 1 1 1 2 2 1 1 1 1 0 -0 -0 -1 -1 -1 -1 -1 -1 -1 -1 -1
3 3 3 3 3 3 3 3 3 3 3 2 2 3 3 2 2 1 1 1 1 1 1 1 0 1 0 0 0 0 0 0 1 1 1 2 1 0 0 0 0 -0 -1 -1 -1 -1 -1 -1 -1 -1 -1 -1
2 2 2 2 2 2 2 2 2 2 2 2 2 2 2 2 1 1 1 1 1 1 1 0 0 0 0 0 -0 0 0 1 1 1 1 1 1 1 -0 -1 -1 -1 -1 -1 -1 -1 -1 -1 -1 -1 -1 -1
3 3 2 1 1 1 1 2 2 2 2 2 1 1 2 2 1 1 1 1 1 1 0 0 -0 -0 -0 -0 -0 0 1 1 1 1 1 1 1 1 -0 -1 -1 -1 -1 -2 -2 -2 -2 -1 -1 -1 -1 -1
3 4 4 3 2 1 1 2 3 3 3 3 2 1 2 2 1 1 0 0 0 0 0 -0 -0 -0 -0 -0 -0 -1 -0 0 1 1 1 1 0 -0 -0 -1 -1 -1 -2 -2 -2 -2 -1 -1 -1 -1 -1 -1
3 3 3 3 3 2 1 1 2 3 3 2 2 2 2 1 1 1 0 -0 -0 0 0 -0 -0 -0 -0 -0 -1 -1 -1 -1 -0 0 0 1 1 -0 -1 -1 -1 -2 -2 -1 -1 -1 -0 -1 -1 0 -1 -2
3 2 2 2 2 1 1 0 0 0 1 1 1 1 1 0 1 1 0 -0 -0 -0 -0 -0 -0 -0 -0 -0 -0 -1 -1 -1 -0 0 1 0 1 1 -1 -2 -2 -2 -2 -1 -1 -1 -1 -3 -2 3 -0 -3
2 2 1 1 0 -1 -1 -1 -2 -2 -2 -2 -1 -1 -0 -0 0 1 0 -0 -1 -1 -1 -1 -1 -1 -0 -0 -0 -1 -1 -0 -0 0 1 1 1 1 1 -0 -2 -2 -2 -1 -1 -0 -0 -2 0 3 -1 -3
1 1 1 1 0 -1 -1 -2 -2 -1 -1 -1 0 0 0 0 0 0 -0 -0 -1 -1 -1 -1 -1 -1 -1 -0 -0 -0 -1 -1 -1 -0 0 1 1 1 2 1 -0 -1 -2 -2 -1 -1 -0 0 1 1 -2 -1
1 1 1 2 2 2 0 -1 -1 0 1 1 2 1 1 1 -0 -0 -1 -1 -1 -1 -2 -2 -2 -2 -1 -1 -1 -0 -1 -1 -1 -0 0 0 1 1 1 1 1 -0 -1 -2 -2 -2 -1 -1 -1 -1 -1 -1
Height
817 818 820 822 824 826 827 828 829 830 830 831 832 832 832 833 833 834 836 836 837 838 839 839 840 840 841 842 842 843 844 845 845 846 847 847 848 848 848 849 849 850 850 850 850 850 850 850 850 851 851 851
817 819 820 822 825 826 827 829 830 830 830 831 832 832 832 833 834 835 836 837 837 838 839 840 840 841 842 842 843 844 845 846 846 847 848 848 849 849 849 850 850 850 851 851 850 851 851 851 852 852 852 852
817 819 820 822 825 826 828 829 830 830 830 830 831 831 831 832 833 834 835 837 838 839 840 840 841 842 842 843 844 845 846 847 847 848 849 849 850 850 851 850 851 851 851 851 851 852 852 852 853 853 853 853
817 819 820 822 825 826 828 829 830 830 829 829 829 830 830 832 832 833 835 837 838 839 840 840 841 842 843 844 844 845 846 847 848 849 849 850 851 851 852 852 852 851 851 851 852 852 853 853 854 854 854 854
817 819 820 822 824 826 828 828 829 828 827 827 828 829 830 832 832 833 834 836 838 839 840 841 842 842 843 844 845 846 847 848 849 850 850 850 851 851 851 851 852 851 851 852 852 853 854 854 854 855 855 856
816 818 820 822 824 825 826 827 827 826 826 827 828 829 830 832 832 833 834 835 837 838 840 841 842 843 844 844 845 846 847 848 849 850 850 850 850 849 849 850 850 850 851 852 853 853 854 854 855 856 856 856
815 817 819 821 822 823 825 825 826 826 826 827 828 829 830 832 832 833 833 835 836 837 838 839 841 842 843 844 845 846 847 848 849 850 850 850 849 849 849 850 850 851 852 853 853 854 855 855 856 856 857 857
815 817 819 820 821 822 824 825 826 826 826 827 828 829 830 832 832 833 833 835 836 836 837 838 840 841 842 843 844 845 845 847 848 848 849 848 848 849 850 851 851 852 853 853 854 855 856 856 857 857 858 858
814 816 818 819 821 822 823 824 825 826 827 827 828 829 830 831 832 833 834 834 835 836 837 838 839 840 842 842 843 844 844 845 846 846 847 848 850 851 851 852 852 853 854 854 855 856 856 857 858 858 859 860
813 816 817 819 820 821 822 824 825 826 826 827 828 829 829 831 832 833 834 834 835 836 837 838 839 840 842 842 843 844 844 844 845 847 848 849 851 852 852 853 853 854 854 855 855 856 857 857 858 859 860 861
813 815 817 818 819 820 821 823 824 825 826 827 828 828 829 830 831 832 833 834 835 836 837 838 839 840 841 842 843 844 844 844 845 847 849 850 851 852 853 854 854 855 855 856 856 856 857 858 859 860 860 861
812 814 816 817 819 820 821 822 823 824 825 826 827 828 829 830 831 832 833 834 835 836 837 838 839 840 841 842 843 844 844 844 845 847 849 851 851 853 853 854 855 855 856 856 857 857 857 858 859 860 861 862
811 813 815 816 818 819 820 821 823 824 825 826 827 828 829 829 830 831 832 833 835 836 836 837 838 839 841 842 842 843 844 845 845 847 849 850 852 853 854 854 855 856 856 857 857 858 858 859 860 860 861 861
810 812 814 816 817 818 819 821 822 824 825 826 827 827 828 829 830 831 832 833 834 835 836 837 838 839 840 841 842 843 844 845 846 847 848 850 852 853 854 855 856 856 857 857 858 859 859 859 860 861 861 862
809 811 813 814 816 818 819 820 821 823 824 825 826 827 828 828 830 831 831 832 833 835 836 837 837 838 840 841 842 843 844 845 846 847 848 850 852 853 854 855 856 857 857 858 859 859 860 860 860 861 861 862
808 810 812 813 815 817 818 820 821 822 824 825 826 826 827 828 829 830 831 832 833 834 835 836 837 838 839 841 842 843 844 845 846 847 849 850 852 853 854 855 856 857 858 858 859 860 861 861 861 861 862 862
807 809 811 812 814 816 818 819 820 821 823 824 825 826 827 828 829 830 831 832 832 833 835 836 837 838 839 841 842 843 844 845 846 847 848 850 851 853 854 854 856 857 858 859 860 861 861 861 862 862 862 863
806 808 810 811 813 815 817 818 819 821 822 823 824 825 826 827 828 830 831 832 832 833 834 835 837 837 839 840 842 843 844 844 845 846 848 849 851 852 854 854 855 857 858 859 860 861 861 862 862 862 863 863
805 806 808 810 812 814 816 818 819 820 821 822 823 824 826 827 828 829 831 832 832 833 834 835 836 837 838 840 841 843 844 844 845 846 847 848 850 851 853 854 855 857 858 859 860 860 861 862 862 862 862 862
804 806 807 809 811 813 815 817 818 819 820 821 822 824 825 826 827 829 830 832 833 833 834 835 836 837 838 839 841 842 843 844 845 846 847 848 850 850 852 854 855 856 858 858 859 860 861 861 862 862 862 862
803 805 807 808 810 812 814 816 817 818 819 820 821 823 824 825 827 828 830 831 832 834 834 835 836 836 837 839 840 842 843 844 845 845 846 848 850 850 851 853 854 856 857 858 859 860 860 861 861 862 862 862
802 804 806 808 810 811 813 815 816 817 818 820 821 822 823 825 826 827 829 831 832 833 834 835 836 836 837 838 839 841 842 843 844 845 846 847 849 851 852 852 854 855 856 857 858 859 860 860 861 861 862 862
801 803 805 807 809 810 812 813 815 816 817 819 820 821 823 824 825 827 828 830 831 833 834 835 836 836 836 837 838 840 841 842 843 844 845 846 848 850 852 853 854 855 856 857 858 859 859 860 860 860 861 861
800 802 804 806 807 808 810 811 813 815 816 818 819 820 821 823 824 826 827 829 830 832 833 834 835 836 836 837 837 838 839 840 841 843 844 845 847 848 850 852 853 854 856 857 858 859 859 859 859 860 860 860
796 798 801 803 804 806 807 809 811 813 814 816 818 819 820 822 823 824 826 827 829 830 832 833 835 836 836 836 836 838 838 839 841 842 843 844 846 847 848 850 852 854 855 857 858 858 859 859 858 859 858 859
792 794 796 798 800 803 805 807 809 810 812 814 816 817 818 820 821 823 824 826 827 829 830 832 833 834 835 836 836 837 838 839 840 841 842 843 844 846 847 849 850 852 854 855 856 857 858 858 858 858 857 857
791 792 794 796 798 801 804 806 807 809 811 812 813 815 816 817 819 821 822 824 826 827 829 830 832 833 834 835 835 836 837 838 839 840 840 841 842 844 846 848 849 850 851 852 854 856 856 857 857 855 855 855
790 792 794 796 798 800 803 805 807 808 809 810 811 812 813 814 816 818 820 822 824 825 827 828 830 832 833 834 834 835 836 836 837 837 838 840 841 842 843 846 848 848 850 851 852 854 855 858 857 853 852 854
788 790 792 794 797 800 802 804 805 805 805 806 808 809 810 812 814 816 818 820 822 823 825 827 828 830 831 832 833 834 835 835 835 836 837 838 839 840 841 843 845 846 848 849 850 850 851 853 853 851 852 852
785 786 788 789 791 793 796 799 798 797 798 800 803 805 807 810 812 813 815 817 819 821 823 825 827 828 830 831 831 832 834 834 835 835 836 837 838 839 840 841 843 844 845 847 848 848 848 848 848 849 851 851
782 784 785 785 786 787 789 791 791 792 795 798 801 803 805 807 809 810 813 814 817 819 821 823 825 826 828 829 830 831 831 833 834 834 835 836 837 838 839 840 841 842 843 845 845 846 847 847 847 848 849 850
Wind_Speed
22 21 20 18 17 17 17 16 15 15 15 14 13 13 13 13 14 14 13 13 14 14 14 14 15 15 15 15 15 15 15 15 16 16 16 17 18 19 18 18 18 18 17 17 20 25 26 26 27 27 28 29
22 21 21 19 17 18 17 16 15 15 15 14 14 14 15 15 15 15 15 15 14 14 14 15 15 15 15 15 16 15 15 15 16 16 16 17 17 18 17 17 18 18 17 18 22 25 25 26 27 27 28 29
22 21 21 19 18 18 17 16 15 15 15 15 15 16 17 17 16 16 16 16 15 15 15 15 15 15 16 16 16 15 15 15 15 15 16 17 17 17 17 17 18 18 17 20 24 25 25 25 26 27 28 29
23 21 21 20 19 18 17 16 16 16 16 17 18 18 18 18 19 19 18 17 16 15 15 15 15 15 15 16 16 16 16 15 15 16 16 16 16 16 17 17 17 16 18 22 24 24 24 25 25 26 27 27
25 22 22 21 18 18 18 16 17 17 18 19 19 17 17 18 20 20 20 20 18 17 16 15 15 15 15 16 16 16 16 16 15 16 16 16 16 17 18 19 18 16 19 24 24 23 23 23 24 25 25 26
26 23 23 22 19 19 19 18 19 19 17 17 18 16 16 18 19 20 20 22 21 19 17 16 15 15 15 15 16 16 16 16 16 15 15 15 15 17 20 20 20 21 23 24 23 22 21 21 22 23 23 24
26 24 24 22 21 21 21 21 20 18 14 16 17 16 16 18 19 19 19 22 24 22 21 20 19 18 17 17 17 17 17 16 15 15 14 14 14 17 18 18 21 23 24 22 21 21 19 20 21 21 22 23
26 25 24 22 21 21 21 20 18 15 13 15 17 15 16 18 18 19 20 22 24 23 23 23 23 22 22 22 21 21 20 19 18 17 15 15 15 17 18 19 21 22 21 20 20 19 18 19 19 19 19 20
25 24 23 22 21 20 20 19 17 15 14 15 16 15 15 17 18 19 20 21 22 21 21 23 23 23 23 23 23 22 21 21 19 17 15 17 18 18 19 20 20 20 20 21 20 20 19 19 18 18 18 18
24 23 23 22 21 20 19 18 16 15 14 15 16 15 15 17 18 20 21 21 22 20 20 22 23 22 22 21 22 20 18 18 16 15 16 18 19 19 19 19 19 20 20 20 21 21 20 19 18 18 18 18
25 23 23 22 21 20 20 18 16 15 15 15 16 15 15 16 18 20 21 22 21 19 19 21 23 23 21 20 21 18 15 16 16 16 19 19 19 19 18 19 19 19 19 19 20 20 19 18 18 17 17 16
26 25 24 23 21 20 19 18 16 16 15 16 16 16 15 16 17 20 21 22 21 19 20 21 22 22 21 20 19 17 15 17 19 19 20 19 18 18 18 19 19 19 19 18 18 18 18 17 16 16 15 14
27 25 24 24 22 21 20 18 17 16 16 16 16 16 16 16 17 19 20 21 21 20 21 21 22 22 21 20 18 17 17 18 20 21 20 19 18 18 18 18 18 18 18 17 16 16 17 16 15 14 13 12
29 26 25 24 22 21 20 19 18 17 17 17 17 17 17 17 17 19 20 20 20 20 21 21 22 22 20 19 18 18 20 20 20 21 20 19 18 18 18 18 17 17 17 17 15 15 15 15 14 13 12 11
30 27 26 24 23 22 21 20 19 18 18 17 17 17 16 17 17 19 20 19 19 19 20 21 21 21 20 20 20 20 21 21 20 20 20 19 18 18 18 18 17 16 16 17 15 14 14 14 13 12 11 10
30 28 26 25 23 22 21 21 20 19 18 17 17 17 17 17 17 19 20 19 19 19 20 21 21 21 21 21 21 21 21 22 22 21 21 19 19 18 18 19 18 16 16 16 16 14 14 13 12 11 10 9
30 28 27 25 24 23 22 21 20 19 18 18 17 17 17 17 17 19 20 20 19 20 20 21 22 22 22 22 22 22 22 23 23 22 22 21 20 19 19 19 18 17 16 16 16 14 13 13 12 11 10 9
31 29 27 26 24 23 23 22 21 20 19 18 17 18 18 17 18 19 20 20 20 20 21 21 22 22 23 23 23 23 23 23 24 23 23 22 21 20 19 19 19 18 17 17 16 15 14 13 12 11 10 9
30 29 28 26 25 24 24 23 22 21 20 19 18 18 18 18 19 20 21 21 20 21 22 22 23 23 23 24 24 24 24 23 24 24 23 22 22 22 20 19 19 18 17 17 16 15 14 12 11 10 9 8
30 29 28 27 26 25 24 23 22 21 20 19 18 18 19 19 20 21 22 22 21 21 22 23 23 24 24 24 24 24 24 24 24 24 23 22 22 22 22 20 20 19 18 18 17 15 14 12 10 8 7 6
31 29 28 28 26 25 25 24 23 22 21 20 19 19 20 20 21 21 22 22 22 22 22 23 23 24 25 25 25 25 25 25 24 24 24 23 21 21 21 21 21 20 19 18 17 15 12 10 9 7 6 5
31 30 29 27 27 26 25 24 24 23 22 21 21 20 20 21 22 22 23 23 23 23 23 24 24 25 26 26 26 26 26 25 25 24 24 24 23 20 20 21 21 20 20 18 16 14 11 9 7 6 5 4
30 29 28 28 27 26 26 25 25 24 23 22 22 21 21 22 22 23 23 24 24 23 24 25 25 26 27 27 27 27 27 27 26 26 24 24 24 22 20 20 20 20 19 18 15 13 10 8 7 5 4 3
30 29 27 27 28 28 28 27 26 25 24 23 23 22 22 22 23 24 24 24 24 24 25 25 26 27 27 28 28 29 29 29 28 27 26 25 24 24 22 21 21 20 19 16 13 11 9 7 6 6 6 6
34 33 31 29 30 30 30 29 27 26 26 25 25 24 23 23 24 24 25 25 25 25 26 26 27 28 28 29 29 30 29 29 29 28 27 26 25 25 24 23 21 20 18 14 11 9 8 8 8 8 8 8
37 37 35 33 33 32 31 30 29 28 27 27 26 25 24 24 25 25 26 26 26 26 26 27 28 29 29 30 30 30 29 29 29 28 28 27 27 25 24 24 23 22 17 12 10 7 4 5 7 9 11 11
37 36 34 32 31 31 30 29 29 27 27 27 27 27 26 26 26 26 27 27 27 27 27 28 28 29 30 30 31 31 31 30 30 30 30 29 28 27 24 22 22 23 19 13 11 6 2 2 2 5 10 12
36 34 32 29 27 28 28 27 27 26 27 28 29 29 28 28 28 27 27 28 28 28 28 29 29 30 30 31 31 32 32 32 32 32 31 31 30 29 27 23 22 24 21 16 12 6 2 1 1 2 4 6
36 34 32 29 24 23 24 23 25 27 29 30 31 31 31 30 29 28 28 29 29 29 29 29 29 30 31 31 32 32 32 33 33 33 32 32 31 30 28 25 23 24 23 20 16 10 4 3 1 3 2 1
37 35 35 34 31 30 28 27 30 34 35 35 34 34 33 31 30 30 30 30 30 30 29 29 30 31 31 32 32 33 33 33 33 33 33 33 32 31 29 26 24 24 24 22 20 17 11 6 3 2 2 2
37 37 37 38 38 36 35 33 35 36 35 35 35 34 33 33 32 31 31 31 30 30 30 30 30 31 31 32 33 33 33 34 34 34 33 33 32 31 29 27 25 24 24 22 21 21 18 13 8 4 3 4
Wind_Direction
144 141 137 139 138 139 141 142 143 138 132 129 127 127 125 123 121 119 120 117 116 117 117 118 117 115 113 111 110 109 108 108 105 103 103 107 112 112 112 111 108 111 111 98 99 110 112 111 108 105 103 97
147 142 138 140 140 142 148 147 143 137 132 129 128 126 124 123 122 122 122 119 119 120 121 124 121 118 117 114 113 113 112 111 109 107 105 108 112 112 113 113 109 111 108 101 108 115 115 114 110 106 103 97
150 149 146 143 143 149 152 149 145 138 133 131 132 132 130 130 128 126 123 122 122 122 123 126 124 122 122 121 119 116 115 114 112 111 108 111 115 114 116 115 112 110 107 110 118 119 118 116 113 109 104 97
153 153 152 149 150 154 152 150 145 139 141 145 146 145 142 142 138 133 128 126 126 127 128 128 126 124 123 124 124 120 118 116 117 114 111 114 115 114 113 114 114 109 111 122 126 124 122 120 117 111 105 100
153 155 157 155 151 150 152 152 148 151 157 158 155 150 149 149 146 142 137 134 135 134 130 129 128 127 125 125 125 125 123 120 120 116 115 116 115 121 124 124 121 114 121 132 132 129 128 126 122 114 109 105
157 162 164 162 159 155 157 160 160 164 162 160 158 153 154 155 153 151 145 140 140 136 132 132 131 131 128 127 126 127 127 126 125 121 121 118 118 137 141 135 132 130 134 137 136 135 134 131 124 118 114 109
166 169 170 172 175 170 169 170 170 168 158 159 163 158 159 162 160 158 152 146 145 144 145 145 144 142 138 136 133 131 129 126 125 124 123 121 125 141 142 133 133 137 141 141 140 140 138 132 126 123 119 113
173 173 177 181 183 182 179 179 176 169 162 163 167 165 166 168 166 165 159 153 153 154 155 154 154 153 150 148 145 142 139 136 136 134 128 128 132 136 134 131 132 137 140 140 141 141 139 134 130 129 124 118
180 180 184 185 186 187 185 184 180 175 172 169 172 174 173 173 172 170 165 161 161 160 160 160 160 158 157 155 152 152 150 148 149 145 135 134 135 132 130 130 131 132 132 132 133 131 131 129 128 127 124 120
190 190 189 188 190 191 188 188 186 181 179 177 179 180 179 178 176 175 171 168 167 164 164 164 164 163 163 162 159 161 158 154 154 147 141 141 138 132 131 129 127 127 125 124 123 121 121 120 119 119 118 117
196 195 193 191 193 194 193 192 192 188 185 184 184 184 185 183 182 180 176 174 172 170 169 168 169 169 169 168 165 169 167 157 154 149 147 145 140 135 133 130 128 126 123 121 118 116 116 115 114 114 115 113
199 197 195 194 196 197 198 197 196 193 189 188 187 186 187 188 188 185 181 179 178 175 173 171 172 173 173 174 173 176 172 157 152 151 150 147 142 140 138 134 130 127 123 120 117 116 114 112 112 111 110 109
200 199 196 196 198 200 201 200 198 197 195 194 191 190 190 193 193 190 187 185 184 180 176 174 176 176 177 180 180 175 167 158 154 153 151 150 146 143 140 136 132 128 124 120 117 115 113 111 109 107 106 103
200 201 200 199 201 203 203 201 199 200 200 200 198 195 193 196 198 197 193 191 189 185 180 178 178 180 182 182 178 170 164 160 158 155 154 153 150 147 144 139 134 132 127 123 120 117 115 112 110 107 105 100
200 201 202 201 202 205 204 202 201 202 203 205 204 201 198 198 200 201 198 195 192 187 183 180 178 179 180 177 172 170 166 161 161 159 157 156 153 151 148 141 137 135 132 127 125 122 119 116 114 111 108 104
200 201 202 202 204 205 205 204 204 205 205 208 207 205 202 200 200 200 199 196 192 188 184 180 177 176 176 174 170 171 168 163 163 161 158 157 155 154 151 145 140 139 136 132 130 128 125 121 119 116 112 109
200 202 202 203 206 206 206 205 206 207 207 209 210 207 204 202 200 199 198 196 192 188 185 181 178 176 175 175 172 172 171 166 165 164 161 159 158 157 155 149 145 143 141 136 134 132 129 125 123 119 117 114
198 201 203 205 206 207 207 207 207 208 209 210 212 209 205 203 200 199 198 196 194 190 187 185 181 179 178 177 175 174 173 171 168 167 165 162 161 160 158 154 149 149 147 142 139 136 132 128 124 120 118 114
200 201 202 205 206 206 207 208 208 210 210 211 213 211 206 203 202 200 199 198 198 194 191 189 185 183 181 179 179 177 176 175 172 170 169 167 166 162 160 158 153 154 152 147 145 141 137 133 128 124 119 113
203 202 202 203 205 206 207 209 210 212 212 212 214 213 209 205 203 202 201 201 201 199 195 193 190 186 185 183 182 180 179 178 176 174 171 171 173 169 164 162 159 158 157 153 150 147 144 141 137 133 127 119
202 203 203 203 203 205 207 209 212 213 213 213 214 214 212 208 205 204 204 203 203 204 200 198 194 190 188 186 185 184 182 181 180 178 175 171 175 176 170 167 164 162 162 160 158 156 154 153 151 150 145 134
199 200 201 202 202 204 207 210 212 214 214 214 214 215 214 211 207 206 206 205 205 206 204 201 198 194 191 189 188 187 185 184 182 181 181 176 174 178 176 172 170 168 167 166 165 166 166 168 167 166 168 167
197 197 198 200 201 202 205 207 210 213 215 215 215 217 216 213 210 208 207 207 207 206 206 203 200 197 194 192 191 190 187 186 185 183 184 182 177 177 178 176 174 172 171 171 172 176 178 181 187 194 202 212
194 194 196 198 200 202 204 206 208 212 215 216 216 217 217 216 214 210 209 208 208 208 207 205 203 200 198 195 194 193 192 190 189 187 186 185 182 179 177 178 178 176 175 176 179 185 192 200 212 224 233 241
196 196 196 197 200 203 203 204 207 210 213 215 217 217 218 218 216 214 211 210 209 208 209 208 205 203 201 199 198 198 197 195 193 191 189 187 184 183 180 179 181 180 177 178 187 199 216 230 236 241 247 249
200 201 202 202 203 204 204 205 209 214 217 218 218 218 219 220 218 216 213 212 211 210 210 209 207 206 204 202 201 200 200 198 195 193 192 189 185 185 185 184 183 183 180 183 190 194 219 246 251 247 247 247
201 203 204 205 205 205 205 206 211 217 220 219 218 218 219 220 219 218 216 214 213 212 211 211 211 210 208 206 204 202 201 199 198 196 195 195 191 186 185 187 187 187 188 187 180 170 189 248 287 259 245 241
202 201 202 204 207 206 205 207 209 212 216 217 216 217 217 218 217 217 217 216 215 214 213 213 213 212 211 209 208 206 204 202 201 200 198 198 197 192 186 187 191 193 195 191 180 164 140 100 63 276 249 239
201 200 199 199 199 200 203 206 207 208 211 212 213 215 216 216 217 217 218 217 216 216 215 215 215 215 214 212 211 210 209 208 206 204 202 200 200 199 195 191 192 196 200 200 198 190 157 104 156 236 236 285
201 201 200 199 195 195 196 200 207 211 211 211 213 216 216 216 217 216 217 217 217 217 217 217 217 217 217 215 214 213 212 212 210 207 206 205 204 204 204 200 195 197 202 204 208 210 208 201 200 201 167 149
202 202 203 206 206 203 200 203 211 215 215 216 218 218 217 216 216 216 217 217 218 218 219 219 218 219 219 218 218 216 215 214 214 213 210 209 208 207 207 206 202 202 203 205 210 216 220 223 225 229 203 189